Theta_e
320 320 322 324 322 321 321 325 326 329 328 328 325 325 327 330 334 333 333 331 330 330 328 327 325 322 320 318 316 314 312 312
322 321 322 322 323 322 323 324 327 329 326 324 323 321 326 331 335 333 333 332 330 330 328 325 324 321 319 318 315 312 310 313
320 322 321 322 323 323 323 324 326 329 329 326 324 325 326 329 332 333 333 332 329 329 327 324 322 319 318 316 314 311 313 313
319 321 323 323 324 325 326 327 328 331 331 328 326 327 329 328 329 329 331 331 328 326 325 323 321 320 316 316 313 313 311 312
320 322 323 324 325 329 328 329 329 331 333 329 326 324 325 327 329 328 328 327 325 323 321 322 321 319 316 315 312 314 312 309
320 322 324 326 327 329 330 329 330 332 333 334 329 326 327 330 328 327 327 323 322 321 321 321 319 316 317 315 313 313 310 309
320 323 325 325 328 331 332 329 328 330 334 333 331 329 328 329 327 324 323 322 321 321 319 319 316 313 314 312 313 311 311 309
320 320 322 325 327 330 331 329 329 331 332 333 329 327 328 328 327 324 322 322 320 319 314 310 311 310 312 313 312 307 308 306
320 320 323 325 328 331 330 330 329 331 331 331 328 325 325 327 329 325 323 322 318 311 308 308 309 312 312 310 306 309 308 307
320 320 322 325 327 331 334 331 331 331 331 327 327 327 326 328 327 326 324 316 309 307 308 307 310 311 307 307 307 303 305 306
318 320 322 324 327 329 335 334 332 331 329 330 326 327 329 329 327 324 320 314 311 310 309 309 309 307 307 307 303 305 304 305
317 319 321 324 326 328 331 333 333 331 330 330 325 326 326 326 326 323 317 314 312 311 311 309 306 306 306 304 302 301 302 304
319 321 322 323 324 326 328 331 332 332 332 328 326 328 327 325 324 322 319 316 315 313 310 306 305 306 304 300 298 301 300 298
318 322 323 325 325 326 328 330 330 332 332 327 327 326 325 323 322 320 317 316 313 310 307 305 305 302 300 299 300 299 299 299
316 320 323 325 327 328 328 329 331 331 330 329 327 321 320 319 316 315 312 312 310 309 307 304 301 299 298 298 299 298 299 298
313 319 322 324 325 326 327 327 327 326 323 323 321 320 318 315 313 312 311 310 308 302 301 298 299 298 298 297 298 299 299 296
315 318 321 322 323 324 323 322 321 322 320 319 318 317 316 314 313 311 309 303 301 298 297 296 297 296 293 293 294 299 297 295
315 317 319 320 320 320 318 317 317 316 313 312 311 310 308 307 304 302 300 299 299 297 298 296 296 296 293 292 292 297 294 293
313 314 314 315 315 314 314 313 312 311 310 309 308 307 305 303 302 300 299 299 298 296 296 296 298 298 292 292 290 292 294 296
Wind_Speed
12 16 21 21 19 20 21 16 16 14 10 9 8 8 7 8 6 9 10 8 10 8 6 6 8 6 6 6 5 3 2 1
16 18 17 16 21 23 17 17 17 12 9 10 9 9 10 8 8 11 11 9 10 9 6 8 8 7 7 6 5 6 5 1
20 20 21 19 20 20 20 18 16 13 11 10 9 10 11 11 10 8 9 9 10 10 8 9 10 7 7 8 7 5 3 2
20 21 22 21 21 21 19 19 15 13 15 10 9 9 5 7 9 9 10 11 11 11 10 9 9 7 8 9 7 6 4 4
19 21 23 23 22 19 21 20 19 14 14 10 14 11 10 9 9 7 8 9 11 9 8 8 8 8 9 8 7 5 4 4
20 22 22 23 22 20 19 20 19 17 17 13 12 12 9 9 9 10 11 8 11 9 11 11 10 7 5 6 6 6 3 5
19 20 22 20 20 20 19 21 21 18 15 15 11 10 10 6 8 9 7 8 10 11 12 9 10 6 5 8 7 7 4 4
20 21 19 20 21 20 18 21 20 19 16 14 11 9 9 10 9 8 9 9 10 13 6 6 7 8 9 9 8 3 4 7
21 22 20 20 20 21 20 21 18 20 15 16 13 14 10 12 13 9 10 11 8 7 6 8 9 10 10 5 4 5 6 6
22 22 20 20 20 20 21 21 20 20 14 13 16 14 15 13 12 12 10 6 8 10 12 10 10 7 7 8 6 4 4 5
11 14 18 20 19 18 18 21 21 19 16 15 10 11 14 13 12 13 12 10 12 12 13 12 10 9 11 10 7 5 5 7
5 7 10 11 14 17 17 17 18 18 18 17 13 12 13 11 10 7 10 12 12 12 13 11 8 9 9 10 4 5 10 3
5 7 7 8 9 11 13 15 17 17 17 18 18 13 11 10 10 8 9 10 10 11 9 9 9 11 10 8 7 9 4 3
7 7 7 7 9 10 12 12 13 13 18 16 13 9 6 5 6 5 8 8 7 7 10 11 9 8 11 9 3 8 4 4
7 8 8 7 7 8 9 9 8 8 8 8 9 5 4 3 5 5 6 6 6 7 7 7 6 10 4 6 7 5 8 4
7 7 9 9 10 9 10 8 7 6 6 6 7 7 7 6 5 6 7 7 7 8 7 8 6 6 5 7 5 13 8 4
5 6 9 10 10 11 11 10 10 8 8 8 8 7 7 6 6 5 6 7 8 7 8 9 10 5 9 7 6 10 7 7
8 8 9 9 11 11 12 11 10 11 11 10 9 9 9 8 8 8 8 8 10 10 9 10 9 6 11 8 5 6 5 8
11 11 11 11 12 13 13 12 12 12 11 11 10 10 10 9 9 9 9 8 9 8 7 7 7 5 9 7 5 4 9 14
Wind_Direction
170 158 160 167 164 166 169 168 181 185 188 211 190 206 214 244 195 213 191 202 192 207 187 171 202 187 177 189 167 160 218 342
166 162 160 166 167 182 190 191 186 188 203 197 198 208 200 210 220 223 190 207 193 204 186 188 213 192 196 171 172 191 174 152
168 178 174 184 178 185 192 198 205 199 203 199 209 198 200 208 197 209 214 208 201 201 201 194 207 190 176 190 205 188 211 201
182 184 185 192 196 195 201 208 198 197 217 196 206 209 207 218 232 199 207 209 212 205 200 205 195 195 191 195 198 209 222 191
189 191 192 193 201 198 203 207 196 195 215 212 204 207 202 211 230 217 210 206 225 206 190 208 198 210 203 196 196 200 213 247
199 193 198 199 197 199 203 207 211 205 187 225 202 214 212 203 208 213 213 187 211 215 198 205 209 211 205 210 189 202 204 245
207 203 194 199 200 199 198 207 208 213 180 197 231 223 230 254 207 206 200 207 206 207 203 196 202 204 195 207 196 200 240 293
206 206 203 197 197 198 199 206 208 203 189 188 181 172 229 242 215 211 210 210 206 208 179 169 196 211 209 209 196 168 203 243
212 209 207 205 201 196 200 202 204 196 188 174 186 201 213 220 216 207 221 225 203 168 181 197 207 210 210 172 175 212 218 243
209 217 210 209 206 203 193 203 204 196 192 178 200 200 210 214 203 215 224 180 182 182 195 198 209 185 151 194 202 185 225 226
235 231 223 212 211 202 191 202 201 184 184 205 218 214 213 217 218 218 189 200 210 198 193 196 189 179 192 209 203 205 217 227
200 233 234 239 224 197 194 203 205 182 193 194 208 208 209 213 223 198 186 199 196 197 198 198 191 188 197 196 189 220 227 216
160 176 188 202 204 203 188 195 206 196 176 189 206 206 208 206 206 182 178 193 197 207 178 186 193 203 182 161 189 205 164 19
166 167 176 180 177 179 180 190 200 200 177 185 190 185 192 188 177 171 179 190 189 192 186 198 183 171 179 191 142 104 110 242
222 171 161 158 156 160 162 165 177 182 173 182 135 130 144 147 134 151 161 184 202 197 204 158 132 150 139 104 110 117 219 264
203 187 160 148 144 155 143 133 122 130 153 173 127 141 161 163 171 172 179 169 194 118 105 121 121 113 116 145 172 226 241 269
188 179 146 136 146 136 124 130 131 142 143 134 122 139 139 138 130 104 109 70 94 120 124 114 137 143 149 163 247 236 251 282
155 142 131 129 121 129 126 128 130 121 114 117 118 114 112 113 114 120 120 133 135 127 142 144 159 178 169 181 223 273 271 270
138 130 125 120 114 111 117 115 113 111 108 107 109 111 113 114 115 111 123 126 132 135 146 167 201 214 159 211 232 265 260 261